Retour au catalogue

CZ-6A DEB

ActifSSO
NORAD 54941·DEBRIS·🇨🇳 China

Lancé Nov 11, 2022 depuis Taiyuan Satellite Launch Center

Loading…

Prochains Passages (prochaines 24 heures)

TLE

FraisSource: Space-Track

Époque: Sep 14, 2026, 11:24 UTC

1 54941U 22151SE  26257.47554266  .00004735  00000-0  16763-2 0  9999
2 54941  98.7980 278.3543 0035870  11.4274 348.7717 14.34675158196995

Suivez CZ-6A DEB en temps réel avec AllMySat

Download on the App Store